Tracking 21612 objects as of 20-Oct-2020
HD Live streaming from Space Station
objects crossing your sky now

COSMOS 1750

Track COSMOS 1750 now!
10-day predictions
COSMOS 1750 is classified as:


NORAD ID: 16760
Int'l Code: 1986-042C
Perigee: 1,415.8 km
Apogee: 1,476.4 km
Inclination: 74.0 °
Period: 114.6 minutes
Semi major axis: 7817 km
RCS: 0.6995 m2 (medium)
Launch date: June 6, 1986
Source: Commonwealth of Independent States (former USSR) (CIS)
Launch site: PLESETSK MISSILE AND SPACE COMPLEX (PKMTR)
aabbcc
Your satellite tracking list
Your tracking list is empty




NASA's NSSDC Master Catalog

Two Line Element Set (TLE):
1 16760U 86042C   20293.36538252 -.00000014  00000-0  11747-4 0  9990
2 16760  74.0198 357.8073 0038790 120.0239 315.0232 12.56123368576313
Source of the keplerian elements: AFSPC